Regional Weather Roundup
Issued by NWS

Home | Current Version | Previous Version | Graphics & Text | Print | Product List | Glossary On
Versions: 1 2 3 4 5 6 7 8 9 10 11 12 13 14 15 16 17 18 19 20 21 22 23 24 25 26 27 28 29 30 31 32 33 34 35 36 37 38 39 40 41 42 43 44 45 46 47 48 49 50
000
ASUS43 KBIS 191210
RWRND

NORTH DAKOTA REGIONAL WEATHER ROUNDUP
NATIONAL WEATHER SERVICE BISMARCK ND
700 AM CDT SAT APR 19 2014

NOTE: "FAIR" INDICATES FEW OR NO CLOUDS BELOW 12,000 FEET WITH NO
SIGNIFICANT WEATHER AND/OR OBSTRUCTIONS TO VISIBILITY.


NDZ001>003-009>011-017-191300-
NORTHWEST NORTH DAKOTA

CITY           SKY/WX    TMP DP  RH WIND       PRES   REMARKS
WILLISTON      MOCLDY    37  32  82 W14G20    29.75R
6HR MIN TEMP:  33; 6HR MAX TEMP:  46; 6HR PCP: TRACE;

MINOT          CLEAR     38  32  79 SW9       29.72R
MINOT AFB      CLEAR     37  35  94 W14G23    29.71R
$$

NDZ018>021-031>035-040>046-191300-
SOUTHWEST NORTH DAKOTA

CITY           SKY/WX    TMP DP  RH WIND       PRES   REMARKS
BISMARCK       PTCLDY    39  33  79 SW8       29.83R
6HR MIN TEMP:  39; 6HR MAX TEMP:  48;

DICKINSON      CLEAR     38  24  57 W17       29.81R
GARRISON         N/A     34  31  88 W9        29.76R
6HR MIN TEMP:  34; 6HR MAX TEMP:  42;

HETTINGER ARPT CLEAR     32  25  75 VRB3      29.90R
$$

NDZ004>008-012>016-024-026-027-054-191300-
NORTHEAST NORTH DAKOTA

CITY           SKY/WX    TMP DP  RH WIND       PRES   REMARKS
GRAND FORKS    MOCLDY    44  37  76 S16       29.73R
GRND FRKS AFB  PTCLDY    42  37  82 SW7       29.73R
DEVILS LAKE    PTCLDY    36  30  80 SW10      29.72R
$$

NDZ022-023-025-028>030-036>039-047>053-191300-
SOUTHEAST NORTH DAKOTA

CITY           SKY/WX    TMP DP  RH WIND       PRES   REMARKS
FARGO          MOCLDY    49  38  65 S20       29.78R
6HR MIN TEMP:  48; 6HR MAX TEMP:  51;

JAMESTOWN      PTCLDY    41  37  86 W9        29.78R
$$




USA.gov is the U.S. government's official web portal to all federal, state and local government web resources and services.